CW1490 Weather Reports


Display with metric or nautical units.
time (UTC)temp
F
wind
direction
speed
MPH
gust
MPH
rain 1hr
in
rain 24hr
in
rain mn
in
humidity
%
barometer
mb
20141024114652 45 48 1.0 6.0 0.00 1.04 0.06 92 1007.6
20141024113151 45 35 1.0 9.0 0.00 1.04 0.06 92 1007.2
20141024111649 45 18 5.0 10.0 0.00 1.04 0.06 92 1007.3
20141024110146 45 43 5.0 11.0 0.00 1.04 0.06 92 1007.3
20141024104645 45 355 3.0 9.0 0.00 1.41 0.06 92 1007.4
20141024103143 45 20 2.0 9.0 0.00 1.41 0.06 93 1007.5
20141024101641 45 34 4.0 9.0 0.00 1.41 0.06 93 1007.4
20141024100139 45 29 3.0 6.0 0.01 1.41 0.06 94 1007.2
20141024094638 45 345 3.0 6.0 0.02 1.78 0.06 94 1007.1
20141024093235 45 31 3.0 9.0 0.03 1.78 0.06 94 1007.2
20141024091633 46 22 2.0 5.0 0.04 1.78 0.06 94 1007.3
20141024090132 46 45 3.0 5.0 0.03 1.77 0.05 94 1007.1
20141024084630 46 27 2.0 7.0 0.02 2.06 0.04 93 1006.9
20141024083131 46 22 3.0 8.0 0.02 2.04 0.03 93 1006.9
20141024081627 46 43 2.0 6.0 0.01 2.04 0.02 93 1006.8
20141024080125 46 49 1.0 4.0 0.01 2.04 0.02 93 1006.5
20141024074625 46 19 2.0 6.0 0.01 2.38 0.02 93 1006.5
20141024073123 46 53 2.0 6.0 0.00 2.37 0.01 93 1006.5
20141024071622 46 22 3.0 5.0 0.00 2.37 0.01 93 1006.5
20141024070120 47 32 1.0 5.0 0.00 2.37 0.01 93 1006.8
20141024064619 47 34 3.0 5.0 0.00 2.56 0.01 93 1006.8
20141024063118 47 355 1.0 5.0 0.00 2.56 0.01 94 1007.0
20141024061617 47 33 1.0 8.0 0.00 2.56 0.01 94 1007.1
20141024060115 47 40 0.0 0.0 0.00 2.56 0.01 95 1007.1
20141024054614 47 40 0.0 0.0 0.01 2.69 0.01 94 1007.1
20141024053114 47 40 0.0 2.0 0.01 2.69 0.01 94 1007.2
20141024051612 48 42 1.0 4.0 0.01 2.69 0.01 93 1007.1
20141024050113 48 25 4.0 9.0 0.01 2.69 0.01 92 1006.9
20141024044608 48 3 4.0 10.0 0.00 2.83 0.00 92 1006.8
20141024043105 48 324 3.0 5.0 0.00 2.83 0.00 93 1006.9
20141024041603 49 32 2.0 5.0 0.00 2.83 0.00 93 1007.0
20141024040102 49 359 0.0 3.0 0.00 2.86 2.83 93 1007.2
20141024034601 49 49 0.0 3.0 0.00 2.86 2.83 92 1007.2
20141024033100 49 34 2.0 6.0 0.00 2.86 2.83 92 1007.2
20141024031859 49 84 1.0 6.0 0.00 2.86 2.83 92 1007.3
20141024030058 49 43 3.0 7.0 0.00 2.87 2.83 93 1007.1
20141024024558 49 47 5.0 13.0 0.00 2.87 2.83 93 1007.4
20141024023057 49 43 4.0 10.0 0.00 2.87 2.83 93 1007.4
20141024021557 49 26 5.0 11.0 0.00 2.87 2.83 93 1007.3
20141024020055 49 35 5.0 10.0 0.00 2.91 2.83 94 1007.4
20141024014555 49 39 3.0 7.0 0.00 2.91 2.83 94 1007.5
20141024013054 49 56 3.0 8.0 0.00 2.91 2.83 94 1007.3
20141024011554 49 27 5.0 11.0 0.00 2.91 2.83 94 1007.3
20141024010053 48 46 6.0 12.0 0.00 2.91 2.83 94 1007.5
20141024004552 48 24 7.0 10.0 0.00 2.91 2.83 94 1007.7
20141024003052 48 51 5.0 11.0 0.00 2.91 2.83 94 1007.8
20141024001551 48 39 4.0 11.0 0.00 2.91 2.83 94 1007.8
20141024000051 48 23 5.0 12.0 0.00 2.92 2.83 94 1007.9
20141023234549 48 42 5.0 10.0 0.00 2.92 2.83 94 1007.8
20141023233049 49 34 6.0 12.0 0.00 2.92 2.83 94 1007.8
20141023231548 49 39 5.0 14.0 0.01 2.92 2.83 94 1007.8
20141023230047 49 36 7.0 12.0 0.01 2.96 2.83 94 1007.6
20141023224546 49 26 7.0 13.0 0.01 2.96 2.83 94 1007.6
20141023223046 49 1 6.0 12.0 0.01 2.96 2.83 93 1007.3
20141023221545 49 41 6.0 12.0 0.00 2.95 2.82 93 1007.3
20141023220044 49 60 7.0 17.0 0.00 2.95 2.82 93 1007.3
20141023214544 49 49 6.0 11.0 0.00 2.95 2.82 93 1007.3
20141023213045 49 47 4.0 12.0 0.00 2.95 2.82 93 1007.2
20141023211542 49 57 6.0 17.0 0.00 2.95 2.82 93 1006.9
20141023210042 49 40 10.0 16.0 0.00 2.95 2.82 93 1006.8
20141023204541 50 32 6.0 12.0 0.00 2.95 2.82 93 1006.7
20141023203040 49 51 10.0 15.0 0.00 2.95 2.82 94 1006.7
20141023201540 49 22 7.0 12.0 0.00 2.95 2.82 94 1006.6
20141023200239 49 48 6.0 13.0 0.00 2.95 2.82 94 1006.7
20141023194539 49 50 8.0 15.0 0.00 2.96 2.82 94 1006.8
20141023193039 49 33 8.0 14.0 0.01 2.96 2.82 94 1006.8
20141023191540 49 46 8.0 13.0 0.03 2.96 2.82 94 1006.7
20141023190038 49 49 6.0 15.0 0.03 2.98 2.82 94 1006.6
20141023184539 49 28 8.0 15.0 0.03 2.98 2.82 93 1006.5
20141023183038 49 20 9.0 16.0 0.02 2.97 2.81 93 1006.7
20141023181537 50 45 10.0 18.0 0.00 2.95 2.79 92 1006.5
20141023180035 51 16 6.0 19.0 0.00 2.95 2.79 91 1006.2
20141023174530 51 51 12.0 22.0 0.00 2.95 2.79 91 1006.4
20141023173027 50 20 8.0 20.0 0.00 2.95 2.79 92 1006.5
20141023171525 50 36 14.0 23.0 0.00 2.95 2.79 93 1006.5
20141023170021 49 23 11.0 23.0 0.01 2.95 2.79 93 1006.8
20141023164519 49 42 11.0 19.0 0.01 2.95 2.79 95 1007.2
20141023163018 49 41 9.0 21.0 0.02 2.95 2.79 95 1007.3
20141023161515 48 45 15.0 24.0 0.11 2.95 2.79 97 1006.1
20141023160013 47 50 10.0 16.0 0.18 2.94 2.78 97 1007.2
20141023154507 47 46 7.0 14.0 0.22 2.94 2.78 97 1007.9
20141023153004 47 64 7.0 11.0 0.24 2.93 2.77 97 1008.0
20141023151500 47 59 5.0 10.0 0.23 2.84 2.68 97 1008.1
20141023145959 47 44 7.0 14.0 0.24 2.76 2.60 97 1008.4
20141023144457 47 48 7.0 13.0 0.30 2.72 2.56 97 1008.5
20141023142956 47 51 7.0 12.0 0.36 2.69 2.52 96 1008.2
20141023141453 46 58 7.0 12.0 0.36 2.61 2.45 96 1008.0
20141023140051 46 45 3.0 8.0 0.34 2.52 2.37 96 1008.4
20141023134449 47 24 3.0 9.0 0.32 2.42 2.25 96 1008.6
20141023132949 47 22 6.0 11.0 0.28 2.33 2.17 96 1008.3
20141023131447 47 24 4.0 10.0 0.21 2.25 2.09 96 1008.3
20141023125945 47 39 3.0 11.0 0.16 2.19 2.02 96 1008.7
20141023124644 47 33 6.0 10.0 0.11 2.13 1.97 96 1008.7
20141023122944 47 45 4.0 10.0 0.03 2.04 1.89 96 1008.3
20141023121443 47 51 4.0 13.0 0.02 2.04 1.88 96 1008.4
20141023115941 47 39 4.0 10.0 0.02 2.02 1.87 96 1008.4